Probability
0 0 0 0 0 0 0 1 1 1 0 1 1 1 0 0 0 0 1 3 6 6 6 6 5 4 4 4 4 2 1 2 3 4 5 5 4 1 0 0 0 0 1
0 0 0 0 0 0 0 0 0 0 1 2 2 2 1 0 0 0 1 2 4 5 6 6 5 5 4 4 3 3 2 2 3 4 6 7 5 2 1 1 1 1 2
0 0 0 0 0 0 0 0 0 0 1 3 3 3 2 1 0 0 0 1 2 3 4 4 4 4 4 3 3 3 3 3 3 4 6 7 5 3 2 2 2 3 3
0 0 0 0 0 0 0 0 0 1 2 3 3 3 3 2 1 1 0 0 0 1 1 2 3 3 3 3 3 3 3 4 5 4 4 4 4 3 3 3 3 3 3
0 0 0 0 0 0 0 0 0 1 2 2 2 3 3 3 3 2 1 1 0 0 0 1 2 2 2 2 2 1 2 4 5 5 3 3 3 3 3 2 2 2 1
1 0 0 0 0 0 0 0 0 0 1 1 1 1 2 2 3 3 3 2 1 0 0 0 1 1 1 2 2 2 3 4 4 3 2 2 2 2 1 1 1 1 0
2 1 1 0 0 0 0 0 0 0 0 0 0 0 1 1 1 2 3 3 2 1 0 0 0 0 0 1 2 4 6 5 3 1 1 0 1 1 0 0 0 0 0
2 3 3 2 0 0 0 0 0 0 0 0 0 0 0 0 0 1 1 2 2 2 1 0 0 0 0 0 1 4 7 7 4 2 1 0 0 0 0 0 0 0 0
3 4 4 3 1 1 1 0 0 0 0 0 0 0 0 0 0 0 0 1 1 1 1 0 0 0 0 0 1 4 6 7 6 5 3 2 2 1 0 0 0 0 0
4 4 4 4 3 2 1 0 0 0 0 0 0 0 0 0 0 0 0 0 0 0 1 1 1 0 0 0 0 2 4 7 8 7 6 6 5 3 1 0 0 0 0
4 3 3 4 4 3 1 0 0 0 0 0 0 0 0 0 0 0 0 0 0 0 0 0 1 1 1 1 1 1 3 6 9 9 9 9 8 6 4 2 1 1 0
3 2 2 2 3 3 1 1 1 1 0 0 0 0 0 0 0 0 1 1 1 0 0 0 0 1 3 3 3 2 3 6 8 8 8 9 9 8 7 6 4 3 2
3 3 3 3 3 3 3 3 3 2 1 0 1 0 0 1 1 1 2 2 1 0 0 0 0 1 3 4 3 3 4 5 6 5 5 7 7 7 7 8 7 6 5
3 4 4 4 5 5 5 5 5 3 1 0 0 0 1 2 2 3 4 4 2 0 0 0 0 0 1 2 1 1 2 3 3 2 2 2 4 4 5 6 6 6 6
3 3 3 4 5 6 6 5 5 4 3 1 1 1 2 3 3 5 5 5 4 2 0 0 0 0 0 0 0 0 1 1 2 2 1 1 1 2 3 3 3 3 4
2 1 2 3 5 6 6 5 5 4 4 3 2 2 3 3 3 4 4 5 6 4 1 0 1 1 1 1 0 0 0 0 1 1 1 1 1 1 1 1 1 2 3
3 3 4 4 5 6 6 5 4 5 5 4 4 4 4 3 3 3 3 4 6 6 4 2 3 3 3 2 1 0 0 0 1 1 1 1 0 0 0 0 0 1 2
6 6 7 7 7 7 7 6 7 9 8 7 7 7 6 3 2 3 4 6 7 7 6 5 5 6 5 4 3 1 0 0 0 0 0 0 0 0 0 0 0 0 1
7 7 7 8 9 9 9 9 11 13 12 11 10 9 7 5 3 3 5 7 7 7 7 6 6 6 6 6 4 2 1 0 0 0 0 0 0 0 0 0 0 0 0
10 9 8 9 10 10 10 10 11 14 15 13 11 10 9 8 7 6 6 7 8 8 8 7 7 6 7 7 5 3 2 1 1 2 1 0 0 0 0 0 0 0 0
16 14 13 13 13 12 12 12 11 12 14 13 11 10 10 10 10 9 7 7 8 9 9 9 8 7 7 8 7 5 4 4 3 3 2 1 0 0 0 0 0 0 0
20 19 18 17 15 14 13 12 10 10 12 12 10 10 10 11 11 9 6 5 6 7 9 10 9 7 7 7 7 6 5 5 5 4 4 2 1 0 0 0 0 0 0
19 19 19 18 16 13 11 8 6 8 10 10 9 10 10 10 10 8 6 4 4 5 7 9 9 7 7 7 5 4 3 4 5 6 5 4 2 1 0 0 0 0 0
14 15 15 15 14 12 8 4 3 6 8 8 8 9 9 9 9 7 6 5 5 5 5 7 7 7 7 7 5 3 1 2 5 6 6 5 4 2 1 0 0 0 0
11 11 11 11 11 10 7 3 2 6 8 7 6 7 7 7 7 7 7 7 7 7 6 5 5 5 5 4 3 3 2 3 4 5 6 6 6 5 3 1 0 0 0
11 10 10 10 10 9 7 3 2 6 7 6 6 6 5 6 6 6 7 8 9 8 7 5 3 2 2 1 2 2 3 3 5 5 6 7 8 7 4 2 1 0 0
Wind_Speed
2 2 1 1 1 1 1 1 0 0 0 0 1 3 3 3 3 2 1 5 5 5 6 6 6 5 5 5 5 5 5 5 5 5 5 5 5 6 7 7 8 8 9
3 2 2 1 1 1 1 1 1 1 0 0 1 2 2 3 3 3 2 3 5 5 6 6 6 5 5 5 5 4 4 4 4 5 5 5 5 5 6 7 7 7 7
3 2 2 1 1 1 1 1 1 1 1 1 1 1 2 2 3 3 3 2 2 4 6 6 5 5 5 5 5 4 5 5 5 5 5 5 5 4 5 6 6 6 7
3 2 2 1 1 1 1 2 1 1 1 0 0 0 1 1 2 3 2 2 2 2 4 6 5 5 5 5 4 4 5 5 5 5 5 5 5 4 4 5 6 6 7
3 3 2 1 1 1 1 1 1 1 1 0 0 0 0 1 1 2 3 3 2 2 2 4 5 5 6 5 5 5 5 6 5 5 5 5 5 4 4 4 5 5 6
3 3 2 1 1 1 1 1 1 1 1 1 0 1 1 0 1 1 2 2 2 3 3 3 2 4 6 5 5 5 6 7 6 6 5 5 5 4 4 4 4 5 6
3 3 2 1 1 1 1 2 1 1 0 1 2 2 3 2 1 1 1 2 2 3 3 3 2 2 2 5 5 5 5 6 6 6 5 5 5 5 5 4 4 5 5
3 3 3 2 2 2 1 1 2 1 0 1 2 1 2 4 3 1 0 1 2 1 2 3 2 2 2 1 3 5 5 5 6 6 5 5 5 5 5 5 5 5 5
2 2 3 3 2 2 2 2 2 2 1 0 1 3 2 2 2 3 2 1 1 1 1 2 3 3 3 2 2 4 5 5 6 6 6 6 5 5 5 6 6 6 6
2 3 3 3 3 2 2 2 2 2 2 1 1 1 2 3 2 1 3 2 1 1 2 2 2 3 4 2 3 4 5 5 5 5 6 6 6 6 6 6 6 6 6
1 2 3 3 3 2 2 2 2 1 2 2 1 1 0 0 1 2 2 3 2 2 1 2 2 2 3 3 3 4 6 6 6 5 5 5 6 6 6 6 6 6 6
1 1 2 2 2 2 2 2 2 2 2 1 1 1 1 1 1 2 2 2 2 2 2 1 1 2 2 2 4 5 6 6 6 5 5 5 5 5 6 6 6 6 6
1 3 2 2 2 3 3 2 2 2 2 2 2 1 1 1 2 2 2 1 1 2 2 2 2 2 2 2 2 4 5 6 6 6 6 5 5 5 5 5 6 6 5
3 3 3 3 3 3 2 2 1 1 1 1 2 1 1 1 1 2 2 2 0 2 2 3 2 2 2 2 3 5 3 6 6 7 7 6 6 5 5 5 5 5 5
2 3 3 3 2 2 2 2 2 2 1 1 1 1 1 1 0 1 2 3 3 1 2 3 2 2 2 2 3 3 3 5 7 7 7 7 7 6 6 5 5 5 5
2 3 3 3 2 2 2 2 2 1 1 1 1 1 1 1 0 0 1 1 2 3 2 3 3 3 2 2 3 3 3 5 7 7 7 8 7 7 7 7 6 7 7
3 3 3 3 3 3 3 2 2 2 2 1 1 1 1 1 0 0 0 1 1 2 2 3 2 2 1 2 1 2 2 2 3 7 7 8 8 8 8 8 7 7 7
3 4 3 3 3 3 3 3 3 3 3 2 2 2 2 1 1 1 1 1 1 2 2 2 2 1 2 2 2 2 2 3 3 6 8 8 8 8 8 8 8 8 7
3 3 3 3 3 3 2 3 3 3 3 3 3 3 3 2 2 2 2 2 2 1 1 2 2 2 2 1 1 2 3 2 4 4 6 7 8 8 8 8 8 8 7
4 4 4 3 3 3 2 2 3 3 3 3 3 3 3 3 4 3 2 3 2 1 1 1 2 2 2 2 0 1 2 2 3 3 3 3 5 8 8 8 8 8 8
5 4 3 3 2 3 3 3 3 3 3 3 3 3 4 4 5 4 3 3 2 2 1 1 2 1 2 1 2 2 3 3 3 3 2 2 2 3 4 7 9 10 9
4 3 3 3 3 3 4 5 4 3 3 3 4 3 3 3 4 5 5 5 4 4 3 2 2 3 4 3 2 2 2 1 3 3 2 3 2 3 4 4 7 9 9
3 3 3 3 3 4 5 5 5 4 3 3 4 4 4 3 3 2 3 4 4 6 6 5 4 5 5 5 3 3 3 3 5 3 2 4 3 4 4 5 8 8 9
4 4 4 3 3 4 5 5 5 4 3 4 4 4 3 3 3 3 2 3 4 5 6 5 6 6 6 5 5 5 5 4 4 3 2 3 3 4 4 3 6 8 8
4 4 3 4 3 4 5 5 4 2 2 3 3 3 3 4 5 4 3 4 5 5 6 7 7 7 7 6 4 1 1 1 3 3 2 2 3 3 3 4 5 7 8
4 4 3 4 4 4 4 4 4 2 2 3 3 3 5 5 6 5 5 5 6 6 4 4 4 5 5 5 5 4 4 3 3 3 3 2 2 1 3 3 3 3 4
Wind_Direction
161 171 195 205 226 216 191 198 176 112 21 42 160 154 158 156 161 165 167 169 168 168 169 169 170 173 179 186 189 193 196 196 198 201 202 206 209 212 213 212 211 211 213
168 171 181 202 220 201 189 180 169 147 174 115 118 149 158 163 166 159 167 178 176 172 175 180 182 181 182 187 188 189 187 193 200 206 209 209 210 213 215 214 214 212 211
167 167 170 189 202 180 160 127 112 100 107 99 106 150 157 166 172 174 175 186 191 190 188 186 187 189 192 190 191 198 199 205 204 203 203 203 206 212 217 216 217 216 215
161 154 156 186 188 147 139 145 132 102 60 54 4 281 149 169 178 177 180 190 192 195 193 189 192 197 202 199 202 208 205 205 204 203 199 198 203 209 214 216 218 221 221
155 150 163 183 156 124 129 145 121 137 145 326 250 253 224 189 187 185 192 199 201 198 201 197 199 207 210 208 209 213 205 204 202 198 199 204 210 210 211 216 220 221 220
155 151 166 168 135 118 106 117 130 131 171 195 300 6 335 260 182 181 197 201 206 203 204 209 209 221 215 213 216 218 211 206 202 203 208 210 212 211 210 216 221 223 220
161 154 159 142 133 139 160 145 145 132 323 103 72 13 352 350 313 225 201 190 203 213 202 201 204 214 226 219 224 222 213 206 200 203 207 213 214 216 217 224 229 229 225
163 161 153 147 144 137 117 126 130 122 278 116 123 90 6 348 339 313 253 202 210 206 206 203 199 204 226 227 224 214 216 214 208 206 209 215 215 217 220 228 237 236 231
164 149 151 150 153 149 162 167 151 144 169 287 141 140 142 234 301 322 315 280 231 195 207 192 193 202 207 219 233 222 213 216 217 219 219 219 216 216 222 230 236 236 234
163 160 156 153 152 151 158 178 155 151 146 186 291 206 177 170 165 302 321 314 299 220 214 210 197 199 205 204 216 214 212 211 219 227 230 226 224 224 227 233 239 240 239
183 171 162 155 156 156 162 168 149 148 163 173 203 232 113 108 144 155 276 313 329 305 247 227 209 206 204 201 209 217 213 209 216 224 228 232 234 232 234 239 245 246 243
222 200 174 168 166 166 169 180 174 163 171 175 189 179 166 171 195 161 203 265 284 291 284 262 223 213 206 207 212 207 208 211 217 222 226 229 236 240 235 240 245 249 248
208 217 197 182 182 185 183 175 168 184 189 191 207 212 200 205 184 164 161 223 266 284 301 295 250 225 211 201 222 206 210 215 218 222 227 229 230 236 239 244 245 242 237
208 205 195 192 195 191 187 173 174 203 195 214 237 221 215 240 185 171 169 161 334 319 316 287 291 243 224 202 220 205 217 218 220 225 228 231 232 235 237 242 246 245 237
201 185 188 191 193 187 182 168 177 200 173 195 224 225 224 260 205 186 169 162 161 227 284 273 274 271 235 211 218 212 223 228 227 229 229 228 230 234 236 238 241 238 235
193 175 190 196 197 192 187 177 185 198 174 217 212 192 264 274 280 144 158 155 159 172 232 260 249 258 235 224 216 219 233 240 239 238 233 231 232 234 237 235 236 233 229
184 181 185 186 197 202 199 186 202 199 193 226 241 206 241 248 256 275 183 155 167 160 212 269 266 270 237 254 254 251 246 238 251 245 241 236 233 234 237 237 233 234 233
184 183 182 186 199 200 192 190 203 203 201 215 230 222 241 227 235 242 221 232 229 200 190 245 273 270 251 248 246 248 254 249 250 252 244 242 237 235 236 238 234 233 235
189 188 187 194 203 199 192 197 194 198 205 212 211 212 225 205 231 237 227 239 244 244 197 211 260 262 267 283 289 275 270 268 261 259 247 242 242 240 238 235 235 234 233
191 193 195 196 196 198 200 208 200 197 205 214 215 214 218 209 217 224 229 234 229 230 222 224 262 273 274 284 303 267 288 274 266 270 263 245 244 244 245 239 238 237 236
197 189 182 187 192 196 215 212 213 209 207 217 228 227 228 220 221 222 225 219 207 208 214 225 251 272 276 285 259 243 255 277 275 257 263 257 246 251 248 245 243 242 237
194 182 187 193 205 229 226 214 208 216 213 213 226 240 244 234 237 236 233 219 201 202 213 214 232 238 251 244 243 238 241 275 283 260 227 261 225 246 250 239 241 238 237
183 184 197 198 214 237 231 221 214 212 220 223 224 233 248 245 234 240 247 243 241 234 213 204 218 233 235 232 222 238 233 232 245 249 210 265 249 251 251 251 240 234 235
187 195 203 209 221 247 245 235 222 214 228 239 234 227 230 248 250 231 240 258 256 252 236 224 224 234 236 227 211 217 224 241 266 267 199 246 257 251 260 255 244 235 239
195 204 204 206 218 251 250 233 220 220 239 261 256 235 225 236 250 236 228 249 263 267 259 245 241 246 249 241 218 190 228 235 274 276 226 214 251 263 268 261 258 248 242
202 205 212 215 218 236 242 224 208 209 237 257 266 257 243 241 252 235 221 228 249 258 264 268 265 272 266 261 235 208 207 215 241 265 243 207 245 246 283 271 258 259 255